THOR 5

Last updated on Jan. 23, 2021, 7:13 a.m. UTC

1 32487U 08006A   21022.85671810  .00000004  00000-0  00000-0 0  9995
2 32487   0.0536 255.7122 0002963  58.3754 115.9682  1.00272705 47531
UTC
Height (km)
Latitude
Longitude
Inclination
Orbital Period
UTC large
Height (km)
Speed (km/s)
/
Latitude / Longitude
Inclination (degrees)
Orbital Period (minutes)
Azimuth
Elevation
Range (km)
Doppler Factor
iOS Compass Heading
iOS Angle

Next 30 passes for location: Hong Kong

Rise time Rise Azimuth (degrees) Set time Set Azimuth (degrees) Duration Max altitude (degrees)

No matching passes for this satellites